SCP
0 0 0 0 1 2 2 3 3 5 3 3 4 2 2 2 3 3 3 3 3 2 2 2 2 2 2 2 2 3 2 1 1 1 0 0 1 1 1 0 0 0 0
0 0 0 1 1 1 2 3 3 4 3 3 2 2 3 2 2 2 2 2 2 3 2 2 2 3 3 2 1 1 1 0 0 1 1 0 0 0 1 0 0 0 0
0 0 0 0 0 1 1 1 3 3 3 3 3 5 4 2 2 3 4 2 2 1 2 2 3 3 3 1 1 1 0 0 0 1 0 0 0 0 0 1 0 0 0
0 0 0 0 0 0 1 1 3 2 2 2 3 3 2 2 0 2 1 2 1 2 2 2 2 2 1 1 0 0 1 1 0 0 1 1 1 0 0 0 0 0 1
0 0 0 0 0 0 0 1 2 2 2 2 2 2 2 2 2 2 3 2 2 2 1 1 1 1 1 1 -0 1 1 1 1 0 0 2 1 1 1 0 0 0 0
0 0 0 0 0 0 0 2 2 2 2 2 3 2 3 3 2 2 2 2 2 1 1 1 1 1 1 1 1 1 1 1 1 1 1 1 0 0 0 0 0 0 0
0 0 0 0 0 0 1 2 1 1 1 2 2 2 2 2 3 2 2 3 2 3 2 1 2 2 1 1 1 1 1 1 1 1 1 0 0 0 0 0 0 0 0
0 0 0 0 0 2 2 2 2 1 2 2 2 2 2 3 3 4 3 2 2 1 1 1 1 1 1 1 1 1 0 1 0 0 1 0 0 0 0 0 0 0 0
0 0 0 0 3 2 2 1 2 2 2 2 3 3 3 2 2 2 1 1 1 0 0 0 0 0 0 0 0 0 1 0 0 1 1 0 0 0 0 0 0 0 0
0 0 2 3 1 1 1 1 1 1 1 1 1 1 1 1 1 1 0 0 0 0 0 0 0 0 0 0 0 0 0 0 0 0 0 0 0 0 0 0 0 0 0
1 2 1 1 1 1 1 1 1 1 1 1 0 0 0 0 0 0 0 0 0 0 0 0 0 0 0 0 0 0 0 0 0 0 0 0 0 0 0 0 0 0 0
1 1 1 1 0 0 0 0 0 0 0 0 0 0 0 0 0 0 0 0 0 0 0 0 0 0 0 0 0 0 0 0 0 0 0 0 0 0 0 0 0 0 0
0 0 0 0 0 0 0 0 0 0 0 0 0 0 0 0 0 0 0 0 0 0 0 0 0 0 0 0 0 0 0 0 0 0 0 0 0 0 0 0 0 0 0
0 0 0 0 0 0 0 0 0 0 0 0 0 0 0 0 0 0 0 0 0 0 0 0 0 0 0 0 0 0 0 0 0 0 0 0 0 0 0 0 0 0 0
0 0 0 0 0 0 0 0 0 0 0 0 0 0 0 0 0 0 0 0 0 0 0 0 0 0 0 0 0 0 0 0 0 0 0 0 0 0 0 0 0 0 0
0 0 0 0 0 0 0 0 0 0 0 0 0 0 0 0 0 0 0 0 0 0 0 0 0 0 0 0 0 0 0 0 0 0 0 0 0 0 0 0 0 0 0
0 0 0 0 0 0 0 0 0 0 0 0 0 0 0 0 0 0 0 0 0 0 0 0 0 0 0 0 0 0 0 0 0 0 0 0 0 0 0 0 0 0 0
0 0 0 0 0 0 0 0 0 0 0 0 0 0 0 0 0 0 0 0 0 0 0 0 0 0 0 0 0 0 0 0 0 0 0 0 0 0 0 0 0 0 0
0 0 0 0 0 0 0 0 0 0 0 0 0 0 0 0 0 0 0 0 0 0 0 0 0 0 0 0 0 0 0 0 0 0 0 0 0 0 -0 0 0 0 0
0 0 0 0 0 0 0 0 0 0 0 0 0 0 0 0 0 0 0 0 0 0 0 0 0 0 0 0 0 0 0 0 0 0 0 0 0 -0 -0 0 0 0 0
0 0 0 0 0 0 0 0 0 -0 0 0 0 0 0 0 0 0 0 0 0 0 0 0 0 0 0 0 0 0 0 0 0 0 0 0 -0 -0 0 0 0 0 0
0 0 0 0 0 0 0 0 0 0 0 0 0 0 0 0 0 0 0 0 0 0 0 0 0 0 -0 -0 0 0 -0 0 -0 -0 -0 -0 -0 0 0 0 0 0 0
0 0 0 -0 -0 -0 0 0 0 0 0 0 0 0 0 0 0 0 0 0 0 0 0 0 0 0 -0 0 -0 -0 -0 -0 -0 -0 0 -0 0 0 0 0 0 0 0
0 0 0 -0 -0 -0 0 0 0 0 0 0 0 0 0 0 0 0 0 0 0 0 0 0 0 0 0 -0 -0 -0 -0 0 -0 -0 -0 0 0 0 0 0 0 0 0
0 -0 -0 -0 -0 -0 -0 -0 -0 0 0 0 0 0 0 0 0 0 0 0 0 0 0 0 0 -0 -0 -0 -0 -0 0 0 -0 0 -0 -0 0 0 0 0 0 0 0
0 -0 -0 -0 -0 -0 -0 0 0 0 0 0 0 0 0 0 0 0 0 0 0 0 0 0 -0 0 -0 -0 -0 -0 -0 -0 0 -0 -0 0 0 0 0 0 0 0 0
Wind_Speed_500mb
62 60 52 53 53 58 52 50 52 51 52 55 56 51 37 34 33 35 42 41 33 29 32 37 40 46 41 37 42 42 32 36 39 39 38 40 41 41 32 24 26 22 21
63 64 55 52 50 49 47 46 53 57 55 51 44 33 31 28 26 24 26 24 26 31 30 33 34 39 37 39 37 37 38 37 26 39 32 37 39 36 25 22 22 25 23
63 65 60 52 49 48 50 49 52 57 52 47 38 39 32 22 23 25 31 28 26 24 31 33 36 39 37 35 31 32 32 40 38 32 20 21 33 34 24 23 19 24 23
57 61 62 52 52 49 45 44 50 48 43 39 49 44 27 21 20 23 18 23 28 23 23 28 30 33 36 28 33 37 39 35 27 24 36 33 34 32 35 39 37 31 39
63 69 65 57 53 47 44 42 45 44 47 47 39 34 27 22 15 16 23 17 21 20 25 24 27 31 29 29 38 33 29 26 27 28 35 33 34 28 38 46 44 39 40
60 63 68 61 54 47 44 45 52 50 49 48 38 34 28 21 19 18 13 12 14 13 15 18 20 19 22 23 23 25 29 32 32 28 27 26 35 39 42 48 51 54 56
61 61 65 65 58 54 51 48 54 45 40 39 38 37 34 27 20 14 9 10 2 9 13 14 15 16 21 23 26 27 29 24 22 28 26 29 35 38 41 47 55 59 59
61 61 63 61 57 47 46 42 41 40 40 44 39 33 29 24 22 21 24 18 13 16 21 13 9 16 11 10 17 16 20 20 25 28 33 37 36 37 40 47 55 63 64
60 58 55 54 51 44 40 37 42 52 49 48 49 50 37 33 26 23 16 18 11 6 16 19 20 17 16 17 22 18 22 30 34 33 35 39 39 41 43 48 52 59 67
37 45 47 52 45 41 41 45 44 45 45 39 36 33 31 29 24 19 14 9 9 12 8 9 11 12 17 18 26 23 21 29 34 37 39 45 46 48 49 51 54 57 65
49 54 54 52 47 46 50 49 47 49 46 42 40 39 35 33 26 19 12 9 7 4 7 10 11 13 17 22 32 36 36 35 39 44 46 50 53 53 54 54 54 58 59
51 55 62 66 64 63 55 54 51 48 44 41 39 36 31 25 19 12 8 6 3 5 10 15 18 20 21 26 30 35 37 40 44 49 50 51 50 56 55 54 57 58 58
62 65 63 61 63 61 56 51 47 44 39 37 33 29 22 15 9 5 2 4 10 13 14 19 22 27 29 29 30 36 39 40 43 45 48 51 51 57 55 57 65 67 67
66 69 66 63 60 54 51 48 45 41 38 34 31 24 19 14 10 9 11 16 15 20 22 25 28 25 25 30 31 29 41 49 48 47 48 49 52 56 56 59 58 59 64
60 64 64 60 56 53 49 45 42 39 35 32 29 24 18 12 10 12 14 16 18 22 25 24 21 23 27 33 43 54 59 48 43 43 43 43 48 56 60 56 57 65 69
63 63 59 55 51 48 44 43 39 36 32 30 27 21 19 16 19 19 17 20 23 21 20 20 21 27 25 39 42 35 39 40 39 41 43 46 48 49 49 56 64 67 72
62 59 54 49 46 44 40 39 36 33 31 27 23 19 18 17 19 19 20 21 21 18 13 16 21 25 26 36 42 38 39 38 37 40 43 46 44 51 55 67 74 80 82
56 51 50 47 45 41 40 37 34 31 29 26 24 23 23 23 22 21 21 22 20 19 18 17 20 24 30 39 39 33 33 34 37 40 43 45 48 50 57 70 81 84 75
52 50 47 45 42 39 36 34 34 31 29 28 28 27 27 23 22 22 23 24 23 24 25 15 15 23 25 29 32 35 40 38 40 44 40 39 49 59 70 79 63 54 49
49 48 44 42 39 37 34 33 32 29 31 28 26 24 24 22 21 22 22 23 24 24 23 21 17 18 19 22 27 39 44 45 46 46 44 40 51 65 62 47 43 53 56
48 45 42 40 38 34 30 33 31 32 26 24 23 23 21 21 20 20 21 22 24 23 21 18 15 16 19 22 25 35 42 43 46 46 46 55 58 55 40 32 43 50 52
44 41 40 39 36 31 30 32 32 25 21 21 21 21 20 18 18 19 20 22 25 22 21 18 14 13 18 19 21 26 42 41 41 45 58 60 52 40 30 34 37 46 45
42 39 40 39 36 34 30 29 24 22 19 20 22 23 19 18 19 23 22 22 22 25 28 27 26 26 29 28 29 39 42 39 42 49 61 57 51 42 41 35 36 40 45
40 36 36 36 35 32 31 28 21 19 19 20 21 17 19 20 21 25 25 28 28 30 32 31 33 33 36 35 38 42 38 39 47 57 64 67 62 55 54 52 48 54 56
37 34 33 33 31 28 29 26 22 17 18 19 18 15 17 21 22 30 32 31 33 31 32 35 36 38 39 39 37 35 34 45 46 56 77 77 65 70 71 72 70 66 65
35 33 31 29 28 27 25 23 21 19 17 16 17 21 29 19 19 18 26 30 28 31 27 29 32 33 33 32 28 23 27 32 45 45 80 86 91 88 89 84 77 75 74
Wind_Direction_500mb
212 206 203 196 191 191 195 194 195 194 210 197 200 211 206 206 208 220 229 226 226 229 235 232 239 244 245 240 244 252 261 268 263 279 294 300 301 284 269 257 263 261 241
208 199 195 193 192 196 194 200 198 202 208 202 197 202 199 205 212 218 215 215 225 234 237 244 244 247 249 247 255 259 267 271 276 283 278 281 280 244 245 241 253 254 253
206 198 184 189 189 189 189 193 206 210 209 208 193 199 188 201 194 203 213 221 226 236 243 241 247 247 249 254 246 245 265 276 279 272 263 292 291 328 265 273 270 245 254
205 202 187 186 188 190 189 186 209 216 206 206 189 188 185 189 206 216 233 231 233 234 243 250 250 251 265 254 256 259 270 274 267 280 249 269 268 281 301 291 289 279 279
201 204 197 194 191 189 185 181 199 203 192 186 179 173 181 199 201 216 227 213 237 224 245 252 261 258 243 234 254 267 268 260 267 264 286 293 286 294 272 285 287 282 280
200 201 198 193 189 185 180 176 189 198 190 188 170 166 185 173 193 197 208 230 249 255 246 243 260 262 253 257 263 262 259 258 261 266 269 281 284 286 289 289 289 289 288
198 194 197 193 192 189 178 171 191 187 178 171 178 168 173 162 168 165 171 202 203 206 237 237 239 255 258 254 260 269 271 269 267 262 273 275 278 283 284 286 286 287 288
193 190 192 190 193 157 157 161 177 172 163 175 162 163 160 158 161 147 186 172 157 208 231 237 243 247 271 277 267 260 280 264 272 277 277 281 283 285 286 285 290 291 288
191 188 179 184 144 143 150 161 168 164 166 157 159 153 149 152 157 166 166 175 184 244 232 230 235 247 259 267 267 277 273 277 280 284 284 292 288 286 284 281 281 285 291
184 152 136 131 131 144 154 162 162 151 148 137 140 138 137 141 141 151 166 179 213 231 259 276 282 286 287 292 286 289 285 279 284 289 284 280 285 285 283 282 283 283 284
102 108 115 121 134 141 145 140 135 129 125 125 125 122 122 124 127 128 128 131 142 210 257 267 282 298 303 299 294 296 298 295 288 284 288 287 286 287 286 286 285 284 283
109 114 119 127 131 130 127 127 126 124 122 121 118 121 129 130 136 139 142 147 224 276 301 297 301 308 305 299 296 296 293 293 292 292 291 290 291 287 290 291 287 282 281
113 118 124 127 125 123 123 123 121 119 116 113 118 122 121 118 109 96 11 306 305 295 304 299 308 304 303 304 303 299 299 296 293 293 292 292 291 290 290 285 285 289 292
114 117 119 120 118 119 119 117 113 111 107 103 102 103 100 89 60 21 351 327 327 321 314 318 322 323 315 315 305 285 289 297 298 296 296 294 291 292 293 289 293 293 292
112 112 113 116 118 116 114 111 107 103 100 98 94 90 80 60 23 356 347 329 323 324 326 338 342 330 327 291 287 290 298 304 304 300 300 300 294 288 295 302 298 292 290
112 112 113 115 113 110 107 101 96 92 88 85 78 68 56 41 13 13 2 349 349 348 352 342 331 328 318 291 295 305 313 316 309 307 303 302 307 309 296 292 285 282 282
115 112 112 110 108 104 101 97 94 91 85 79 72 62 48 28 17 14 2 358 358 344 344 339 337 328 323 314 321 325 327 323 313 309 307 306 304 299 298 292 289 286 284
113 111 109 105 100 99 94 91 88 84 78 69 58 45 39 28 23 17 9 8 358 349 346 340 338 323 324 322 332 338 342 339 336 327 320 313 315 316 305 303 304 305 307
110 108 104 100 96 93 92 88 82 77 71 62 55 46 41 35 28 22 12 4 2 348 326 322 328 325 331 340 343 345 349 346 345 348 337 331 321 316 308 310 319 327 331
106 103 98 93 89 85 85 85 81 75 66 58 54 49 47 36 30 29 23 17 8 1 2 3 352 337 331 347 353 355 351 354 349 351 346 332 317 322 322 318 326 326 328
102 99 92 88 84 83 86 83 76 68 64 60 55 51 52 35 32 27 16 4 2 3 6 11 18 357 353 2 3 1 1 1 352 350 340 337 327 335 335 322 336 334 334
97 96 96 87 81 77 76 73 69 64 65 62 59 53 47 44 30 26 22 9 20 27 24 29 46 9 9 14 11 13 14 2 358 356 358 347 341 344 343 338 331 340 335
100 95 89 84 75 69 69 69 66 66 63 67 60 51 45 48 42 34 30 27 29 33 37 37 36 29 21 32 32 34 14 358 14 14 359 8 11 9 11 357 355 348 2
98 95 89 82 74 67 64 63 63 64 68 77 63 66 44 44 42 35 35 34 39 39 35 32 30 27 23 27 22 24 12 14 30 25 27 21 23 31 31 29 26 27 19
96 91 89 84 79 72 64 59 54 65 66 75 66 54 76 46 21 27 34 27 30 33 30 27 23 20 23 20 14 9 9 34 33 24 25 21 26 32 32 33 32 33 31
96 94 91 87 77 69 65 60 54 54 72 78 77 65 65 51 48 40 17 24 26 28 23 19 21 20 15 9 8 9 13 32 29 23 30 32 34 34 32 32 33 35 38
Wind_Speed_850mb
62 60 52 53 53 58 52 50 52 51 52 55 56 51 37 34 33 35 42 41 33 29 32 37 40 46 41 37 42 42 32 36 39 39 38 40 41 41 32 24 26 22 21
63 64 55 52 50 49 47 46 53 57 55 51 44 33 31 28 26 24 26 24 26 31 30 33 34 39 37 39 37 37 38 37 26 39 32 37 39 36 25 22 22 25 23
63 65 60 52 49 48 50 49 52 57 52 47 38 39 32 22 23 25 31 28 26 24 31 33 36 39 37 35 31 32 32 40 38 32 20 21 33 34 24 23 19 24 23
57 61 62 52 52 49 45 44 50 48 43 39 49 44 27 21 20 23 18 23 28 23 23 28 30 33 36 28 33 37 39 35 27 24 36 33 34 32 35 39 37 31 39
63 69 65 57 53 47 44 42 45 44 47 47 39 34 27 22 15 16 23 17 21 20 25 24 27 31 29 29 38 33 29 26 27 28 35 33 34 28 38 46 44 39 40
60 63 68 61 54 47 44 45 52 50 49 48 38 34 28 21 19 18 13 12 14 13 15 18 20 19 22 23 23 25 29 32 32 28 27 26 35 39 42 48 51 54 56
61 61 65 65 58 54 51 48 54 45 40 39 38 37 34 27 20 14 9 10 2 9 13 14 15 16 21 23 26 27 29 24 22 28 26 29 35 38 41 47 55 59 59
61 61 63 61 57 47 46 42 41 40 40 44 39 33 29 24 22 21 24 18 13 16 21 13 9 16 11 10 17 16 20 20 25 28 33 37 36 37 40 47 55 63 64
60 58 55 54 51 44 40 37 42 52 49 48 49 50 37 33 26 23 16 18 11 6 16 19 20 17 16 17 22 18 22 30 34 33 35 39 39 41 43 48 52 59 67
37 45 47 52 45 41 41 45 44 45 45 39 36 33 31 29 24 19 14 9 9 12 8 9 11 12 17 18 26 23 21 29 34 37 39 45 46 48 49 51 54 57 65
49 54 54 52 47 46 50 49 47 49 46 42 40 39 35 33 26 19 12 9 7 4 7 10 11 13 17 22 32 36 36 35 39 44 46 50 53 53 54 54 54 58 59
51 55 62 66 64 63 55 54 51 48 44 41 39 36 31 25 19 12 8 6 3 5 10 15 18 20 21 26 30 35 37 40 44 49 50 51 50 56 55 54 57 58 58
62 65 63 61 63 61 56 51 47 44 39 37 33 29 22 15 9 5 2 4 10 13 14 19 22 27 29 29 30 36 39 40 43 45 48 51 51 57 55 57 65 67 67
66 69 66 63 60 54 51 48 45 41 38 34 31 24 19 14 10 9 11 16 15 20 22 25 28 25 25 30 31 29 41 49 48 47 48 49 52 56 56 59 58 59 64
60 64 64 60 56 53 49 45 42 39 35 32 29 24 18 12 10 12 14 16 18 22 25 24 21 23 27 33 43 54 59 48 43 43 43 43 48 56 60 56 57 65 69
63 63 59 55 51 48 44 43 39 36 32 30 27 21 19 16 19 19 17 20 23 21 20 20 21 27 25 39 42 35 39 40 39 41 43 46 48 49 49 56 64 67 72
62 59 54 49 46 44 40 39 36 33 31 27 23 19 18 17 19 19 20 21 21 18 13 16 21 25 26 36 42 38 39 38 37 40 43 46 44 51 55 67 74 80 82
56 51 50 47 45 41 40 37 34 31 29 26 24 23 23 23 22 21 21 22 20 19 18 17 20 24 30 39 39 33 33 34 37 40 43 45 48 50 57 70 81 84 75
52 50 47 45 42 39 36 34 34 31 29 28 28 27 27 23 22 22 23 24 23 24 25 15 15 23 25 29 32 35 40 38 40 44 40 39 49 59 70 79 63 54 49
49 48 44 42 39 37 34 33 32 29 31 28 26 24 24 22 21 22 22 23 24 24 23 21 17 18 19 22 27 39 44 45 46 46 44 40 51 65 62 47 43 53 56
48 45 42 40 38 34 30 33 31 32 26 24 23 23 21 21 20 20 21 22 24 23 21 18 15 16 19 22 25 35 42 43 46 46 46 55 58 55 40 32 43 50 52
44 41 40 39 36 31 30 32 32 25 21 21 21 21 20 18 18 19 20 22 25 22 21 18 14 13 18 19 21 26 42 41 41 45 58 60 52 40 30 34 37 46 45
42 39 40 39 36 34 30 29 24 22 19 20 22 23 19 18 19 23 22 22 22 25 28 27 26 26 29 28 29 39 42 39 42 49 61 57 51 42 41 35 36 40 45
40 36 36 36 35 32 31 28 21 19 19 20 21 17 19 20 21 25 25 28 28 30 32 31 33 33 36 35 38 42 38 39 47 57 64 67 62 55 54 52 48 54 56
37 34 33 33 31 28 29 26 22 17 18 19 18 15 17 21 22 30 32 31 33 31 32 35 36 38 39 39 37 35 34 45 46 56 77 77 65 70 71 72 70 66 65
35 33 31 29 28 27 25 23 21 19 17 16 17 21 29 19 19 18 26 30 28 31 27 29 32 33 33 32 28 23 27 32 45 45 80 86 91 88 89 84 77 75 74
Wind_Direction_850mb
212 206 203 196 191 191 195 194 195 194 210 197 200 211 206 206 208 220 229 226 226 229 235 232 239 244 245 240 244 252 261 268 263 279 294 300 301 284 269 257 263 261 241
208 199 195 193 192 196 194 200 198 202 208 202 197 202 199 205 212 218 215 215 225 234 237 244 244 247 249 247 255 259 267 271 276 283 278 281 280 244 245 241 253 254 253
206 198 184 189 189 189 189 193 206 210 209 208 193 199 188 201 194 203 213 221 226 236 243 241 247 247 249 254 246 245 265 276 279 272 263 292 291 328 265 273 270 245 254
205 202 187 186 188 190 189 186 209 216 206 206 189 188 185 189 206 216 233 231 233 234 243 250 250 251 265 254 256 259 270 274 267 280 249 269 268 281 301 291 289 279 279
201 204 197 194 191 189 185 181 199 203 192 186 179 173 181 199 201 216 227 213 237 224 245 252 261 258 243 234 254 267 268 260 267 264 286 293 286 294 272 285 287 282 280
200 201 198 193 189 185 180 176 189 198 190 188 170 166 185 173 193 197 208 230 249 255 246 243 260 262 253 257 263 262 259 258 261 266 269 281 284 286 289 289 289 289 288
198 194 197 193 192 189 178 171 191 187 178 171 178 168 173 162 168 165 171 202 203 206 237 237 239 255 258 254 260 269 271 269 267 262 273 275 278 283 284 286 286 287 288
193 190 192 190 193 157 157 161 177 172 163 175 162 163 160 158 161 147 186 172 157 208 231 237 243 247 271 277 267 260 280 264 272 277 277 281 283 285 286 285 290 291 288
191 188 179 184 144 143 150 161 168 164 166 157 159 153 149 152 157 166 166 175 184 244 232 230 235 247 259 267 267 277 273 277 280 284 284 292 288 286 284 281 281 285 291
184 152 136 131 131 144 154 162 162 151 148 137 140 138 137 141 141 151 166 179 213 231 259 276 282 286 287 292 286 289 285 279 284 289 284 280 285 285 283 282 283 283 284
102 108 115 121 134 141 145 140 135 129 125 125 125 122 122 124 127 128 128 131 142 210 257 267 282 298 303 299 294 296 298 295 288 284 288 287 286 287 286 286 285 284 283
109 114 119 127 131 130 127 127 126 124 122 121 118 121 129 130 136 139 142 147 224 276 301 297 301 308 305 299 296 296 293 293 292 292 291 290 291 287 290 291 287 282 281
113 118 124 127 125 123 123 123 121 119 116 113 118 122 121 118 109 96 11 306 305 295 304 299 308 304 303 304 303 299 299 296 293 293 292 292 291 290 290 285 285 289 292
114 117 119 120 118 119 119 117 113 111 107 103 102 103 100 89 60 21 351 327 327 321 314 318 322 323 315 315 305 285 289 297 298 296 296 294 291 292 293 289 293 293 292
112 112 113 116 118 116 114 111 107 103 100 98 94 90 80 60 23 356 347 329 323 324 326 338 342 330 327 291 287 290 298 304 304 300 300 300 294 288 295 302 298 292 290
112 112 113 115 113 110 107 101 96 92 88 85 78 68 56 41 13 13 2 349 349 348 352 342 331 328 318 291 295 305 313 316 309 307 303 302 307 309 296 292 285 282 282
115 112 112 110 108 104 101 97 94 91 85 79 72 62 48 28 17 14 2 358 358 344 344 339 337 328 323 314 321 325 327 323 313 309 307 306 304 299 298 292 289 286 284
113 111 109 105 100 99 94 91 88 84 78 69 58 45 39 28 23 17 9 8 358 349 346 340 338 323 324 322 332 338 342 339 336 327 320 313 315 316 305 303 304 305 307
110 108 104 100 96 93 92 88 82 77 71 62 55 46 41 35 28 22 12 4 2 348 326 322 328 325 331 340 343 345 349 346 345 348 337 331 321 316 308 310 319 327 331
106 103 98 93 89 85 85 85 81 75 66 58 54 49 47 36 30 29 23 17 8 1 2 3 352 337 331 347 353 355 351 354 349 351 346 332 317 322 322 318 326 326 328
102 99 92 88 84 83 86 83 76 68 64 60 55 51 52 35 32 27 16 4 2 3 6 11 18 357 353 2 3 1 1 1 352 350 340 337 327 335 335 322 336 334 334
97 96 96 87 81 77 76 73 69 64 65 62 59 53 47 44 30 26 22 9 20 27 24 29 46 9 9 14 11 13 14 2 358 356 358 347 341 344 343 338 331 340 335
100 95 89 84 75 69 69 69 66 66 63 67 60 51 45 48 42 34 30 27 29 33 37 37 36 29 21 32 32 34 14 358 14 14 359 8 11 9 11 357 355 348 2
98 95 89 82 74 67 64 63 63 64 68 77 63 66 44 44 42 35 35 34 39 39 35 32 30 27 23 27 22 24 12 14 30 25 27 21 23 31 31 29 26 27 19
96 91 89 84 79 72 64 59 54 65 66 75 66 54 76 46 21 27 34 27 30 33 30 27 23 20 23 20 14 9 9 34 33 24 25 21 26 32 32 33 32 33 31
96 94 91 87 77 69 65 60 54 54 72 78 77 65 65 51 48 40 17 24 26 28 23 19 21 20 15 9 8 9 13 32 29 23 30 32 34 34 32 32 33 35 38